Wetterdaten: Freitag, 28.08.2015
Datum Zeit Auen-Temp. Temp gefhlt Luftfeuchte Luftdruck Regen Wind Richtung Richtung Taupunkt Windben
28.08.2015 00:00 15,9 C 15,7 C 72 % 1010,0 hPa 0,0 mm 0,0 km/h (0 Bft) S-SW 202 10,9 C 0,0 km/h (0 Bft)
28.08.2015 00:05 15,8 C 15,6 C 72 % 1010,0 hPa 0,0 mm 0,0 km/h (0 Bft) S-SW 202 10,8 C 0,0 km/h (0 Bft)
28.08.2015 00:10 15,7 C 15,5 C 72 % 1010,0 hPa 0,0 mm 0,0 km/h (0 Bft) W-SW 247 10,7 C 0,0 km/h (0 Bft)
28.08.2015 00:15 15,7 C 15,5 C 72 % 1010,3 hPa 0,0 mm 0,0 km/h (0 Bft) W-SW 247 10,7 C 0,0 km/h (0 Bft)
28.08.2015 00:16 15,7 C 15,5 C 72 % 1010,3 hPa 0,0 mm 0,5 km/h (0 Bft) W-NW 292 10,7 C 0,0 km/h (0 Bft)
28.08.2015 00:20 15,7 C 15,5 C 72 % 1010,3 hPa 0,0 mm 0,5 km/h (0 Bft) W-NW 292 10,7 C 0,0 km/h (0 Bft)
28.08.2015 00:25 15,7 C 15,5 C 72 % 1010,3 hPa 0,0 mm 0,5 km/h (0 Bft) O-NO 67 10,7 C 0,0 km/h (0 Bft)
28.08.2015 00:30 15,3 C 15,2 C 72 % 1010,3 hPa 0,0 mm 0,0 km/h (0 Bft) O-NO 67 10,3 C 0,0 km/h (0 Bft)
28.08.2015 00:35 15,1 C 15,0 C 72 % 1010,2 hPa 0,0 mm 0,0 km/h (0 Bft) O-NO 67 10,1 C 0,0 km/h (0 Bft)
28.08.2015 00:40 15,4 C 15,2 C 73 % 1010,2 hPa 0,0 mm 0,0 km/h (0 Bft) O-SO 112 10,6 C 0,0 km/h (0 Bft)
28.08.2015 00:45 15,2 C 15,0 C 73 % 1010,2 hPa 0,0 mm 0,0 km/h (0 Bft) O-NO 67 10,4 C 0,0 km/h (0 Bft)
28.08.2015 00:50 15,3 C 15,1 C 73 % 1010,2 hPa 0,0 mm 0,0 km/h (0 Bft) SO 135 10,5 C 0,0 km/h (0 Bft)
28.08.2015 00:55 15,1 C 14,9 C 73 % 1010,2 hPa 0,0 mm 0,0 km/h (0 Bft) O-NO 67 10,3 C 0,0 km/h (0 Bft)
28.08.2015 01:00 14,6 C 14,5 C 73 % 1010,2 hPa 0,0 mm 0,0 km/h (0 Bft) O-NO 67 9,8 C 0,0 km/h (0 Bft)
28.08.2015 01:05 14,3 C 14,3 C 74 % 1010,2 hPa 0,0 mm 0,0 km/h (0 Bft) O-NO 67 9,7 C 0,0 km/h (0 Bft)
28.08.2015 01:10 14,3 C 14,1 C 75 % 1010,2 hPa 0,0 mm 0,0 km/h (0 Bft) O-NO 67 9,9 C 0,0 km/h (0 Bft)
28.08.2015 01:15 14,3 C 14,1 C 76 % 1010,3 hPa 0,0 mm 0,0 km/h (0 Bft) O-NO 67 10,1 C 0,0 km/h (0 Bft)
28.08.2015 01:20 14,1 C 13,9 C 76 % 1010,3 hPa 0,0 mm 0,0 km/h (0 Bft) O-SO 112 9,9 C 0,0 km/h (0 Bft)
28.08.2015 01:25 14,6 C 14,2 C 76 % 1010,3 hPa 0,0 mm 0,0 km/h (0 Bft) O-SO 112 10,4 C 0,0 km/h (0 Bft)
28.08.2015 01:30 14,1 C 13,9 C 75 % 1010,3 hPa 0,0 mm 0,0 km/h (0 Bft) O-NO 67 9,7 C 0,0 km/h (0 Bft)
28.08.2015 01:35 13,9 C 13,7 C 76 % 1010,4 hPa 0,0 mm 0,0 km/h (0 Bft) O-SO 112 9,7 C 0,0 km/h (0 Bft)
28.08.2015 01:40 14,7 C 14,3 C 77 % 1010,4 hPa 0,0 mm 1,8 km/h (1 Bft) S-SO 157 10,7 C 11,1 km/h (2 Bft)
28.08.2015 01:45 15,2 C 14,9 C 74 % 1010,4 hPa 0,0 mm 1,8 km/h (1 Bft) S-SO 157 10,6 C 0,0 km/h (0 Bft)
28.08.2015 01:50 15,5 C 15,4 C 74 % 1010,4 hPa 0,0 mm 1,0 km/h (0 Bft) S-SO 157 10,9 C 0,0 km/h (0 Bft)
28.08.2015 01:55 15,3 C 15,2 C 75 % 1010,6 hPa 0,0 mm 1,0 km/h (0 Bft) O-NO 67 10,9 C 0,0 km/h (0 Bft)
28.08.2015 02:00 14,3 C 14,6 C 74 % 1010,6 hPa 0,0 mm 0,3 km/h (0 Bft) S 180 9,7 C 0,0 km/h (0 Bft)
28.08.2015 02:05 14,1 C 14,2 C 75 % 1010,6 hPa 0,0 mm 0,0 km/h (0 Bft) SO 135 9,7 C 0,0 km/h (0 Bft)
28.08.2015 02:10 15,0 C 14,8 C 76 % 1010,6 hPa 0,0 mm 3,6 km/h (1 Bft) S-SW 202 10,8 C 11,9 km/h (2 Bft)
28.08.2015 02:15 15,4 C 15,2 C 75 % 1010,7 hPa 0,0 mm 5,7 km/h (1 Bft) S-SO 157 11,0 C 4,1 km/h (1 Bft)
28.08.2015 02:20 15,3 C 15,2 C 74 % 1010,7 hPa 0,0 mm 3,1 km/h (1 Bft) S-SO 157 10,7 C 0,0 km/h (0 Bft)
28.08.2015 02:25 15,0 C 15,0 C 73 % 1010,7 hPa 0,0 mm 1,0 km/h (0 Bft) W 270 10,2 C 4,1 km/h (1 Bft)
28.08.2015 02:30 15,0 C 14,9 C 74 % 1010,7 hPa 0,0 mm 1,8 km/h (1 Bft) SW 225 10,4 C 17,1 km/h (3 Bft)
28.08.2015 02:35 15,7 C 15,5 C 73 % 1010,9 hPa 0,0 mm 4,1 km/h (1 Bft) SO 135 10,9 C 0,0 km/h (0 Bft)
28.08.2015 02:40 16,1 C 15,9 C 71 % 1010,9 hPa 0,0 mm 6,5 km/h (2 Bft) SO 135 10,8 C 19,4 km/h (3 Bft)
28.08.2015 02:45 16,0 C 15,9 C 70 % 1010,9 hPa 0,0 mm 4,4 km/h (1 Bft) SO 135 10,5 C 0,0 km/h (0 Bft)
28.08.2015 02:50 15,8 C 15,7 C 71 % 1010,9 hPa 0,0 mm 2,3 km/h (1 Bft) N-NW 337 10,6 C 0,0 km/h (0 Bft)
28.08.2015 02:55 15,3 C 15,6 C 71 % 1011,0 hPa 0,0 mm 1,0 km/h (0 Bft) W-SW 247 10,1 C 0,0 km/h (0 Bft)
28.08.2015 03:00 14,7 C 15,1 C 72 % 1011,0 hPa 0,0 mm 0,3 km/h (0 Bft) NO 45 9,7 C 0,0 km/h (0 Bft)
28.08.2015 03:05 14,4 C 14,8 C 72 % 1011,0 hPa 0,0 mm 0,0 km/h (0 Bft) NO 45 9,4 C 0,0 km/h (0 Bft)
28.08.2015 03:10 14,3 C 14,3 C 73 % 1011,0 hPa 0,0 mm 0,0 km/h (0 Bft) O-NO 67 9,5 C 0,0 km/h (0 Bft)
28.08.2015 03:15 14,3 C 14,2 C 73 % 1011,0 hPa 0,0 mm 0,0 km/h (0 Bft) SO 135 9,5 C 0,0 km/h (0 Bft)
28.08.2015 03:20 14,1 C 14,0 C 74 % 1011,0 hPa 0,0 mm 0,0 km/h (0 Bft) SW 225 9,5 C 0,0 km/h (0 Bft)
28.08.2015 03:25 13,9 C 13,8 C 75 % 1011,0 hPa 0,0 mm 0,0 km/h (0 Bft) S 180 9,5 C 0,0 km/h (0 Bft)
28.08.2015 03:30 13,9 C 13,8 C 76 % 1011,0 hPa 0,0 mm 0,0 km/h (0 Bft) S 180 9,7 C 0,0 km/h (0 Bft)
28.08.2015 03:35 14,0 C 13,8 C 76 % 1011,0 hPa 0,0 mm 0,0 km/h (0 Bft) S 180 9,8 C 0,0 km/h (0 Bft)
28.08.2015 03:40 13,7 C 13,6 C 76 % 1011,0 hPa 0,0 mm 0,0 km/h (0 Bft) O-SO 112 9,5 C 0,0 km/h (0 Bft)
28.08.2015 03:45 13,8 C 13,6 C 77 % 1011,0 hPa 0,0 mm 0,0 km/h (0 Bft) O-SO 112 9,8 C 0,0 km/h (0 Bft)
28.08.2015 03:50 13,5 C 13,4 C 77 % 1011,0 hPa 0,0 mm 0,0 km/h (0 Bft) SO 135 9,5 C 0,0 km/h (0 Bft)
28.08.2015 03:55 13,4 C 13,2 C 77 % 1011,2 hPa 0,0 mm 0,0 km/h (0 Bft) O-SO 112 9,5 C 0,0 km/h (0 Bft)
28.08.2015 04:00 13,1 C 13,0 C 77 % 1011,2 hPa 0,0 mm 0,0 km/h (0 Bft) O-SO 112 9,2 C 0,0 km/h (0 Bft)
28.08.2015 04:05 13,4 C 13,1 C 79 % 1011,2 hPa 0,0 mm 0,3 km/h (0 Bft) O-SO 112 9,8 C 0,0 km/h (0 Bft)
28.08.2015 04:10 13,7 C 13,4 C 79 % 1011,2 hPa 0,0 mm 0,3 km/h (0 Bft) W-NW 292 10,1 C 0,0 km/h (0 Bft)
28.08.2015 04:15 13,4 C 13,2 C 79 % 1011,2 hPa 0,0 mm 0,5 km/h (0 Bft) NO 45 9,8 C 0,0 km/h (0 Bft)
28.08.2015 04:20 13,3 C 13,3 C 79 % 1011,2 hPa 0,0 mm 0,3 km/h (0 Bft) NO 45 9,7 C 0,0 km/h (0 Bft)
28.08.2015 04:25 13,2 C 13,2 C 79 % 1011,2 hPa 0,0 mm 0,0 km/h (0 Bft) NW 315 9,6 C 0,0 km/h (0 Bft)
28.08.2015 04:30 13,2 C 13,2 C 79 % 1011,2 hPa 0,0 mm 0,0 km/h (0 Bft) N-NW 337 9,6 C 0,0 km/h (0 Bft)
28.08.2015 04:35 13,4 C 13,3 C 80 % 1011,3 hPa 0,0 mm 0,0 km/h (0 Bft) NW 315 10,0 C 0,0 km/h (0 Bft)
28.08.2015 04:40 13,5 C 13,5 C 80 % 1011,3 hPa 0,0 mm 0,0 km/h (0 Bft) N-NO 22 10,1 C 0,0 km/h (0 Bft)
28.08.2015 04:45 13,6 C 13,6 C 80 % 1011,3 hPa 0,0 mm 0,0 km/h (0 Bft) N-NO 22 10,2 C 0,0 km/h (0 Bft)
28.08.2015 04:50 13,5 C 13,6 C 80 % 1011,3 hPa 0,0 mm 0,0 km/h (0 Bft) N-NW 337 10,1 C 0,0 km/h (0 Bft)
28.08.2015 04:55 13,4 C 13,5 C 79 % 1011,6 hPa 0,0 mm 0,0 km/h (0 Bft) N-NO 22 9,8 C 0,0 km/h (0 Bft)
28.08.2015 05:00 13,5 C 13,4 C 79 % 1011,6 hPa 0,0 mm 0,0 km/h (0 Bft) N-NO 22 9,9 C 0,0 km/h (0 Bft)
28.08.2015 05:05 13,4 C 13,3 C 79 % 1011,6 hPa 0,0 mm 0,0 km/h (0 Bft) N 360 9,8 C 0,0 km/h (0 Bft)
28.08.2015 05:10 13,0 C 13,0 C 79 % 1011,6 hPa 0,0 mm 0,0 km/h (0 Bft) NW 315 9,4 C 0,0 km/h (0 Bft)
28.08.2015 05:15 12,9 C 12,8 C 79 % 1011,8 hPa 0,0 mm 0,0 km/h (0 Bft) NW 315 9,3 C 0,0 km/h (0 Bft)
28.08.2015 05:20 12,8 C 12,7 C 79 % 1011,8 hPa 0,0 mm 0,0 km/h (0 Bft) O-NO 67 9,2 C 0,0 km/h (0 Bft)
28.08.2015 05:25 12,6 C 12,5 C 79 % 1011,8 hPa 0,0 mm 0,3 km/h (0 Bft) W-SW 247 9,1 C 0,0 km/h (0 Bft)
28.08.2015 05:30 12,7 C 12,5 C 81 % 1011,8 hPa 0,0 mm 0,5 km/h (0 Bft) O 90 9,5 C 0,0 km/h (0 Bft)
28.08.2015 05:35 12,9 C 12,7 C 81 % 1011,9 hPa 0,0 mm 2,1 km/h (1 Bft) S 180 9,7 C 14,0 km/h (3 Bft)
28.08.2015 05:40 14,1 C 13,8 C 80 % 1011,9 hPa 0,0 mm 2,3 km/h (1 Bft) S-SO 157 10,7 C 0,0 km/h (0 Bft)
28.08.2015 05:45 14,5 C 14,2 C 79 % 1011,9 hPa 0,0 mm 1,8 km/h (1 Bft) SO 135 10,9 C 2,6 km/h (1 Bft)
28.08.2015 05:50 13,9 C 13,9 C 78 % 1011,9 hPa 0,0 mm 0,0 km/h (0 Bft) NW 315 10,1 C 0,0 km/h (0 Bft)
28.08.2015 05:55 13,6 C 13,8 C 77 % 1011,9 hPa 0,0 mm 0,8 km/h (0 Bft) O-SO 112 9,6 C 6,0 km/h (2 Bft)
28.08.2015 06:00 13,4 C 13,5 C 78 % 1011,9 hPa 0,0 mm 1,0 km/h (0 Bft) W-SW 247 9,6 C 0,0 km/h (0 Bft)
28.08.2015 06:05 13,7 C 13,6 C 78 % 1011,9 hPa 0,0 mm 1,0 km/h (0 Bft) S-SW 202 9,9 C 0,0 km/h (0 Bft)
28.08.2015 06:10 13,2 C 13,3 C 78 % 1011,9 hPa 0,0 mm 0,8 km/h (0 Bft) NW 315 9,4 C 0,0 km/h (0 Bft)
28.08.2015 06:15 13,1 C 13,2 C 78 % 1012,2 hPa 0,0 mm 0,3 km/h (0 Bft) O-NO 67 9,4 C 0,0 km/h (0 Bft)
28.08.2015 06:16 13,0 C 13,0 C 78 % 1012,2 hPa 0,0 mm 0,0 km/h (0 Bft) O-NO 67 9,3 C 0,0 km/h (0 Bft)
28.08.2015 06:21 13,1 C 13,0 C 78 % 1012,2 hPa 0,0 mm 0,0 km/h (0 Bft) O-NO 67 9,4 C 0,0 km/h (0 Bft)
28.08.2015 06:25 13,1 C 13,0 C 78 % 1012,2 hPa 0,0 mm 0,0 km/h (0 Bft) O-NO 67 9,4 C 0,0 km/h (0 Bft)
28.08.2015 06:30 13,2 C 13,0 C 79 % 1012,2 hPa 0,0 mm 0,3 km/h (0 Bft) SO 135 9,6 C 0,0 km/h (0 Bft)
28.08.2015 06:35 13,0 C 12,9 C 79 % 1012,4 hPa 0,0 mm 0,8 km/h (0 Bft) NW 315 9,4 C 0,0 km/h (0 Bft)
28.08.2015 06:40 12,9 C 12,8 C 79 % 1012,4 hPa 0,0 mm 0,5 km/h (0 Bft) O-NO 67 9,3 C 0,0 km/h (0 Bft)
28.08.2015 06:45 12,8 C 12,7 C 79 % 1012,4 hPa 0,0 mm 0,0 km/h (0 Bft) S 180 9,2 C 0,0 km/h (0 Bft)
28.08.2015 06:50 12,6 C 12,6 C 79 % 1012,4 hPa 0,0 mm 0,0 km/h (0 Bft) O-SO 112 9,1 C 0,0 km/h (0 Bft)
28.08.2015 06:55 12,6 C 12,6 C 79 % 1012,3 hPa 0,0 mm 0,0 km/h (0 Bft) S-SO 157 9,1 C 0,0 km/h (0 Bft)
28.08.2015 07:00 13,0 C 12,9 C 80 % 1012,3 hPa 0,0 mm 1,0 km/h (0 Bft) S 180 9,6 C 0,0 km/h (0 Bft)
28.08.2015 07:05 12,9 C 13,0 C 80 % 1012,3 hPa 0,0 mm 1,0 km/h (0 Bft) S-SO 157 9,5 C 0,0 km/h (0 Bft)
28.08.2015 07:10 12,8 C 13,1 C 80 % 1012,3 hPa 0,0 mm 0,0 km/h (0 Bft) S-SO 157 9,4 C 0,0 km/h (0 Bft)
28.08.2015 07:15 12,8 C 13,2 C 80 % 1012,9 hPa 0,0 mm 0,0 km/h (0 Bft) S-SO 157 9,4 C 0,0 km/h (0 Bft)
28.08.2015 07:20 13,0 C 13,3 C 80 % 1012,9 hPa 0,0 mm 0,0 km/h (0 Bft) O-NO 67 9,6 C 0,0 km/h (0 Bft)
28.08.2015 07:25 13,1 C 13,5 C 78 % 1012,9 hPa 0,0 mm 0,0 km/h (0 Bft) O-NO 67 9,4 C 0,0 km/h (0 Bft)
28.08.2015 07:30 13,4 C 13,8 C 80 % 1012,9 hPa 0,0 mm 0,0 km/h (0 Bft) O-NO 67 10,0 C 0,0 km/h (0 Bft)
28.08.2015 07:35 13,5 C 14,0 C 80 % 1013,3 hPa 0,0 mm 0,0 km/h (0 Bft) O-NO 67 10,1 C 0,0 km/h (0 Bft)
28.08.2015 07:40 13,6 C 14,2 C 80 % 1013,3 hPa 0,0 mm 0,0 km/h (0 Bft) O 90 10,2 C 0,0 km/h (0 Bft)
28.08.2015 07:45 14,0 C 15,2 C 78 % 1013,3 hPa 0,0 mm 0,3 km/h (0 Bft) S 180 10,2 C 2,8 km/h (1 Bft)
28.08.2015 07:50 14,5 C 16,8 C 78 % 1013,3 hPa 0,0 mm 2,3 km/h (1 Bft) S 180 10,7 C 7,3 km/h (2 Bft)
28.08.2015 07:55 14,7 C 16,8 C 78 % 1013,4 hPa 0,0 mm 4,1 km/h (1 Bft) S-SO 157 10,9 C 3,1 km/h (1 Bft)
28.08.2015 08:00 15,1 C 18,1 C 78 % 1013,4 hPa 0,0 mm 3,1 km/h (1 Bft) S 180 11,3 C 4,7 km/h (1 Bft)
28.08.2015 08:05 15,4 C 19,4 C 77 % 1013,4 hPa 0,0 mm 1,0 km/h (0 Bft) W-NW 292 11,4 C 0,0 km/h (0 Bft)
28.08.2015 08:10 16,3 C 20,9 C 76 % 1013,4 hPa 0,0 mm 0,5 km/h (0 Bft) W-NW 292 12,1 C 0,0 km/h (0 Bft)
28.08.2015 08:15 16,8 C 22,8 C 76 % 1013,5 hPa 0,0 mm 0,0 km/h (0 Bft) W 270 12,5 C 0,0 km/h (0 Bft)
28.08.2015 08:20 17,6 C 24,6 C 75 % 1013,5 hPa 0,0 mm 0,0 km/h (0 Bft) W-NW 292 13,1 C 0,0 km/h (0 Bft)
28.08.2015 08:25 18,2 C 25,3 C 74 % 1013,5 hPa 0,0 mm 0,0 km/h (0 Bft) W-NW 292 13,5 C 0,0 km/h (0 Bft)
28.08.2015 08:30 18,6 C 25,9 C 73 % 1013,5 hPa 0,0 mm 0,3 km/h (0 Bft) S 180 13,7 C 0,0 km/h (0 Bft)
28.08.2015 08:35 18,5 C 26,0 C 72 % 1013,6 hPa 0,0 mm 0,3 km/h (0 Bft) W 270 13,4 C 0,0 km/h (0 Bft)
28.08.2015 08:40 18,5 C 26,5 C 72 % 1013,6 hPa 0,0 mm 0,0 km/h (0 Bft) S 180 13,4 C 0,0 km/h (0 Bft)
28.08.2015 08:45 18,9 C 27,6 C 72 % 1013,6 hPa 0,0 mm 0,0 km/h (0 Bft) W-SW 247 13,7 C 0,0 km/h (0 Bft)
28.08.2015 08:50 19,4 C 28,3 C 71 % 1013,6 hPa 0,0 mm 0,0 km/h (0 Bft) O 90 14,0 C 0,0 km/h (0 Bft)
28.08.2015 08:55 19,9 C 29,1 C 72 % 1014,3 hPa 0,0 mm 0,0 km/h (0 Bft) O 90 14,7 C 0,0 km/h (0 Bft)
28.08.2015 09:00 20,7 C 30,0 C 70 % 1014,3 hPa 0,0 mm 0,0 km/h (0 Bft) O-SO 112 15,0 C 0,0 km/h (0 Bft)
28.08.2015 09:05 21,5 C 30,6 C 69 % 1014,3 hPa 0,0 mm 0,0 km/h (0 Bft) O-NO 67 15,6 C 0,0 km/h (0 Bft)
28.08.2015 09:10 21,8 C 30,4 C 68 % 1014,3 hPa 0,0 mm 0,0 km/h (0 Bft) N-NO 22 15,6 C 0,0 km/h (0 Bft)
28.08.2015 09:15 21,8 C 29,5 C 67 % 1014,5 hPa 0,0 mm 0,0 km/h (0 Bft) N 360 15,4 C 0,0 km/h (0 Bft)
28.08.2015 09:20 21,7 C 27,9 C 67 % 1014,5 hPa 0,0 mm 0,0 km/h (0 Bft) O-NO 67 15,3 C 0,0 km/h (0 Bft)
28.08.2015 09:25 21,7 C 27,4 C 67 % 1014,5 hPa 0,0 mm 0,0 km/h (0 Bft) NO 45 15,3 C 0,0 km/h (0 Bft)
28.08.2015 09:30 21,7 C 26,6 C 66 % 1014,5 hPa 0,0 mm 0,8 km/h (0 Bft) N-NW 337 15,1 C 6,2 km/h (2 Bft)
28.08.2015 09:35 21,7 C 25,6 C 66 % 1015,0 hPa 0,0 mm 2,3 km/h (1 Bft) NW 315 15,1 C 0,0 km/h (0 Bft)
28.08.2015 09:40 21,6 C 25,5 C 66 % 1015,0 hPa 0,0 mm 2,6 km/h (1 Bft) W-NW 292 15,0 C 4,7 km/h (1 Bft)
28.08.2015 09:45 21,8 C 25,8 C 67 % 1015,0 hPa 0,0 mm 1,3 km/h (1 Bft) W 270 15,4 C 0,0 km/h (0 Bft)
28.08.2015 09:50 22,8 C 27,8 C 66 % 1015,0 hPa 0,0 mm 0,5 km/h (0 Bft) NW 315 16,1 C 0,0 km/h (0 Bft)
28.08.2015 09:55 23,1 C 29,1 C 63 % 1015,1 hPa 0,0 mm 0,0 km/h (0 Bft) NW 315 15,7 C 0,0 km/h (0 Bft)
28.08.2015 10:00 23,8 C 30,5 C 62 % 1015,1 hPa 0,0 mm 0,0 km/h (0 Bft) NW 315 16,1 C 0,0 km/h (0 Bft)
28.08.2015 10:05 23,5 C 30,7 C 60 % 1015,1 hPa 0,0 mm 0,0 km/h (0 Bft) NW 315 15,3 C 0,0 km/h (0 Bft)
28.08.2015 10:10 22,8 C 30,4 C 62 % 1015,1 hPa 0,0 mm 0,0 km/h (0 Bft) NW 315 15,1 C 0,0 km/h (0 Bft)
28.08.2015 10:15 22,4 C 29,2 C 63 % 1015,4 hPa 0,0 mm 0,5 km/h (0 Bft) NW 315 15,0 C 3,6 km/h (1 Bft)
28.08.2015 10:20 22,7 C 27,7 C 64 % 1015,4 hPa 0,0 mm 3,1 km/h (1 Bft) W-SW 247 15,5 C 6,7 km/h (2 Bft)
28.08.2015 10:25 23,4 C 28,1 C 62 % 1015,4 hPa 0,0 mm 4,4 km/h (1 Bft) W-NW 292 15,7 C 0,0 km/h (0 Bft)
28.08.2015 10:30 23,8 C 29,9 C 60 % 1015,4 hPa 0,0 mm 2,3 km/h (1 Bft) N-NW 337 15,6 C 0,0 km/h (0 Bft)
28.08.2015 10:35 23,6 C 30,6 C 61 % 1015,7 hPa 0,0 mm 0,5 km/h (0 Bft) SW 225 15,6 C 0,0 km/h (0 Bft)
28.08.2015 10:40 24,3 C 31,7 C 61 % 1015,7 hPa 0,0 mm 0,3 km/h (0 Bft) SW 225 16,3 C 0,0 km/h (0 Bft)
28.08.2015 10:45 24,9 C 32,2 C 61 % 1015,7 hPa 0,0 mm 0,0 km/h (0 Bft) NW 315 16,8 C 0,0 km/h (0 Bft)
28.08.2015 10:50 25,2 C 33,1 C 58 % 1015,7 hPa 0,0 mm 0,0 km/h (0 Bft) W-SW 247 16,3 C 0,0 km/h (0 Bft)
28.08.2015 10:55 24,8 C 32,6 C 58 % 1016,2 hPa 0,0 mm 0,3 km/h (0 Bft) O-SO 112 16,0 C 0,0 km/h (0 Bft)
28.08.2015 11:00 24,6 C 32,2 C 56 % 1016,2 hPa 0,0 mm 0,8 km/h (0 Bft) O-SO 112 15,2 C 3,4 km/h (1 Bft)
28.08.2015 11:05 24,6 C 32,2 C 55 % 1016,2 hPa 0,0 mm 0,5 km/h (0 Bft) O-NO 67 14,9 C 0,0 km/h (0 Bft)
28.08.2015 11:10 25,2 C 32,9 C 55 % 1016,2 hPa 0,0 mm 0,3 km/h (0 Bft) S-SO 157 15,5 C 0,0 km/h (0 Bft)
28.08.2015 11:15 25,2 C 33,5 C 56 % 1016,7 hPa 0,0 mm 0,0 km/h (0 Bft) S-SO 157 15,8 C 0,0 km/h (0 Bft)
28.08.2015 11:20 25,8 C 33,7 C 55 % 1016,7 hPa 0,0 mm 1,0 km/h (0 Bft) W-NW 292 16,1 C 3,6 km/h (1 Bft)
28.08.2015 11:25 25,9 C 33,4 C 54 % 1016,7 hPa 0,0 mm 1,6 km/h (1 Bft) N 360 15,9 C 3,1 km/h (1 Bft)
28.08.2015 11:30 25,8 C 33,3 C 53 % 1016,7 hPa 0,0 mm 1,6 km/h (1 Bft) NO 45 15,5 C 0,0 km/h (0 Bft)
28.08.2015 11:35 26,0 C 33,5 C 51 % 1017,0 hPa 0,0 mm 2,6 km/h (1 Bft) N-NO 22 15,1 C 5,2 km/h (1 Bft)
28.08.2015 11:40 26,3 C 32,9 C 50 % 1017,0 hPa 0,0 mm 4,9 km/h (1 Bft) NW 315 15,0 C 8,5 km/h (2 Bft)
28.08.2015 11:45 26,4 C 32,0 C 50 % 1017,0 hPa 0,0 mm 5,7 km/h (1 Bft) N-NO 22 15,1 C 4,9 km/h (1 Bft)
28.08.2015 11:50 26,7 C 32,3 C 50 % 1017,0 hPa 0,0 mm 4,7 km/h (1 Bft) W-NW 292 15,4 C 3,1 km/h (1 Bft)
28.08.2015 11:55 27,0 C 32,6 C 49 % 1017,1 hPa 0,0 mm 3,1 km/h (1 Bft) W 270 15,4 C 0,0 km/h (0 Bft)
28.08.2015 12:00 27,1 C 32,7 C 49 % 1017,1 hPa 0,0 mm 3,1 km/h (1 Bft) N-NW 337 15,4 C 2,8 km/h (1 Bft)
28.08.2015 12:05 27,1 C 32,9 C 49 % 1017,1 hPa 0,0 mm 3,4 km/h (1 Bft) W-SW 247 15,4 C 6,2 km/h (2 Bft)
28.08.2015 12:10 26,5 C 32,6 C 46 % 1017,1 hPa 0,0 mm 4,1 km/h (1 Bft) SO 135 13,9 C 6,0 km/h (2 Bft)
28.08.2015 12:15 26,4 C 32,0 C 48 % 1017,1 hPa 0,0 mm 4,7 km/h (1 Bft) SW 225 14,5 C 6,5 km/h (2 Bft)
28.08.2015 12:20 26,8 C 32,2 C 49 % 1017,1 hPa 0,0 mm 2,8 km/h (1 Bft) S-SO 157 15,2 C 4,4 km/h (1 Bft)
28.08.2015 12:21 27,2 C 32,8 C 48 % 1017,1 hPa 0,0 mm 1,3 km/h (1 Bft) SO 135 15,2 C 0,0 km/h (0 Bft)
28.08.2015 12:23 27,2 C 32,8 C 48 % 1017,1 hPa 0,0 mm 1,3 km/h (1 Bft) SO 135 15,2 C 0,0 km/h (0 Bft)
28.08.2015 12:25 27,2 C 32,8 C 48 % 1017,1 hPa 0,0 mm 1,3 km/h (1 Bft) SO 135 15,2 C 0,0 km/h (0 Bft)
28.08.2015 12:30 27,4 C 33,5 C 48 % 1017,1 hPa 0,0 mm 0,5 km/h (0 Bft) SO 135 15,4 C 0,0 km/h (0 Bft)
28.08.2015 12:35 27,6 C 33,8 C 48 % 1017,1 hPa 0,0 mm 0,3 km/h (0 Bft) W 270 15,6 C 0,0 km/h (0 Bft)
28.08.2015 12:40 27,8 C 33,8 C 47 % 1017,1 hPa 0,0 mm 2,8 km/h (1 Bft) NW 315 15,4 C 6,2 km/h (2 Bft)
28.08.2015 12:45 27,8 C 33,5 C 47 % 1017,1 hPa 0,0 mm 3,9 km/h (1 Bft) NW 315 15,4 C 0,0 km/h (0 Bft)
28.08.2015 12:50 28,1 C 34,1 C 47 % 1017,1 hPa 0,0 mm 1,6 km/h (1 Bft) N-NO 22 15,7 C 0,0 km/h (0 Bft)
28.08.2015 12:55 27,9 C 34,3 C 47 % 1017,8 hPa 0,0 mm 0,5 km/h (0 Bft) SO 135 15,5 C 0,0 km/h (0 Bft)
28.08.2015 13:00 28,1 C 34,3 C 45 % 1017,8 hPa 0,0 mm 0,5 km/h (0 Bft) W-SW 247 15,0 C 0,0 km/h (0 Bft)
28.08.2015 13:05 28,4 C 34,3 C 45 % 1017,8 hPa 0,0 mm 0,5 km/h (0 Bft) W-SW 247 15,3 C 4,9 km/h (1 Bft)
28.08.2015 13:10 28,7 C 33,5 C 46 % 1017,8 hPa 0,0 mm 1,8 km/h (1 Bft) N 360 15,9 C 6,0 km/h (2 Bft)
28.08.2015 13:15 28,7 C 32,4 C 47 % 1017,1 hPa 0,0 mm 2,8 km/h (1 Bft) N-NW 337 16,3 C 4,4 km/h (1 Bft)
28.08.2015 13:20 28,3 C 31,7 C 46 % 1017,1 hPa 0,0 mm 2,6 km/h (1 Bft) S-SW 202 15,6 C 0,0 km/h (0 Bft)
28.08.2015 13:25 28,3 C 31,3 C 45 % 1017,1 hPa 0,0 mm 2,3 km/h (1 Bft) SW 225 15,2 C 7,3 km/h (2 Bft)
28.08.2015 13:30 28,0 C 31,0 C 45 % 1017,1 hPa 0,0 mm 2,6 km/h (1 Bft) S 180 14,9 C 3,6 km/h (1 Bft)
28.08.2015 13:35 28,0 C 31,4 C 44 % 1017,0 hPa 0,0 mm 2,8 km/h (1 Bft) S 180 14,6 C 0,0 km/h (0 Bft)
28.08.2015 13:40 28,6 C 32,0 C 44 % 1017,0 hPa 0,0 mm 3,1 km/h (1 Bft) NW 315 15,1 C 4,7 km/h (1 Bft)
28.08.2015 13:45 28,5 C 32,2 C 45 % 1017,0 hPa 0,0 mm 3,9 km/h (1 Bft) N-NW 337 15,4 C 6,2 km/h (2 Bft)
28.08.2015 13:50 28,4 C 32,6 C 44 % 1017,0 hPa 0,0 mm 5,7 km/h (1 Bft) W 270 14,9 C 8,5 km/h (2 Bft)
28.08.2015 13:55 28,4 C 32,7 C 44 % 1016,6 hPa 0,0 mm 6,2 km/h (2 Bft) W-NW 292 14,9 C 7,5 km/h (2 Bft)
28.08.2015 14:00 28,3 C 32,1 C 43 % 1016,6 hPa 0,0 mm 8,0 km/h (2 Bft) NW 315 14,5 C 9,6 km/h (2 Bft)
28.08.2015 14:05 28,5 C 32,1 C 43 % 1016,6 hPa 0,0 mm 8,3 km/h (2 Bft) NW 315 14,7 C 8,5 km/h (2 Bft)
28.08.2015 14:10 28,6 C 32,0 C 43 % 1016,6 hPa 0,0 mm 8,0 km/h (2 Bft) N-NW 337 14,8 C 9,1 km/h (2 Bft)
28.08.2015 14:15 28,4 C 32,2 C 43 % 1016,2 hPa 0,0 mm 6,7 km/h (2 Bft) S 180 14,6 C 3,9 km/h (1 Bft)
28.08.2015 14:20 28,3 C 31,9 C 43 % 1016,2 hPa 0,0 mm 4,4 km/h (1 Bft) S-SW 202 14,5 C 2,6 km/h (1 Bft)
28.08.2015 14:25 28,5 C 32,1 C 45 % 1016,2 hPa 0,0 mm 3,4 km/h (1 Bft) W-SW 247 15,4 C 0,0 km/h (0 Bft)
28.08.2015 14:30 28,8 C 32,3 C 44 % 1016,2 hPa 0,0 mm 2,8 km/h (1 Bft) NW 315 15,3 C 9,3 km/h (2 Bft)
28.08.2015 14:35 28,6 C 32,1 C 44 % 1016,2 hPa 0,0 mm 5,2 km/h (1 Bft) NW 315 15,1 C 13,2 km/h (3 Bft)
28.08.2015 14:40 28,2 C 31,7 C 43 % 1016,2 hPa 0,0 mm 7,3 km/h (2 Bft) W 270 14,4 C 5,4 km/h (1 Bft)
28.08.2015 14:45 28,3 C 31,9 C 44 % 1016,2 hPa 0,0 mm 5,4 km/h (1 Bft) W-NW 292 14,9 C 10,9 km/h (2 Bft)
28.08.2015 14:50 28,6 C 32,2 C 44 % 1016,2 hPa 0,0 mm 5,2 km/h (1 Bft) W 270 15,1 C 11,4 km/h (2 Bft)
28.08.2015 14:55 28,6 C 32,6 C 44 % 1016,2 hPa 0,0 mm 5,4 km/h (1 Bft) SW 225 15,1 C 4,1 km/h (1 Bft)
28.08.2015 15:00 28,9 C 33,8 C 44 % 1016,2 hPa 0,0 mm 2,8 km/h (1 Bft) W-SW 247 15,4 C 9,1 km/h (2 Bft)
28.08.2015 15:05 29,0 C 34,1 C 44 % 1016,2 hPa 0,0 mm 2,3 km/h (1 Bft) W-NW 292 15,5 C 12,7 km/h (3 Bft)
28.08.2015 15:10 29,0 C 33,5 C 43 % 1016,2 hPa 0,0 mm 5,4 km/h (1 Bft) NW 315 15,1 C 9,3 km/h (2 Bft)
28.08.2015 15:15 28,9 C 33,0 C 43 % 1015,9 hPa 0,0 mm 4,9 km/h (1 Bft) W-SW 247 15,0 C 4,7 km/h (1 Bft)
28.08.2015 15:20 28,5 C 33,0 C 45 % 1015,9 hPa 0,0 mm 1,8 km/h (1 Bft) S 180 15,4 C 5,2 km/h (1 Bft)
28.08.2015 15:25 28,5 C 33,1 C 43 % 1015,9 hPa 0,0 mm 2,8 km/h (1 Bft) N 360 14,7 C 7,8 km/h (2 Bft)
28.08.2015 15:30 28,8 C 33,4 C 44 % 1015,9 hPa 0,0 mm 4,1 km/h (1 Bft) W-NW 292 15,3 C 6,2 km/h (2 Bft)
28.08.2015 15:35 28,8 C 33,2 C 43 % 1015,8 hPa 0,0 mm 4,4 km/h (1 Bft) NW 315 15,0 C 3,9 km/h (1 Bft)
28.08.2015 15:40 28,8 C 33,3 C 43 % 1015,8 hPa 0,0 mm 2,8 km/h (1 Bft) N-NW 337 15,0 C 6,2 km/h (2 Bft)
28.08.2015 15:45 28,9 C 33,3 C 44 % 1015,8 hPa 0,0 mm 2,6 km/h (1 Bft) NO 45 15,4 C 3,9 km/h (1 Bft)
28.08.2015 15:50 28,9 C 33,5 C 43 % 1015,8 hPa 0,0 mm 3,6 km/h (1 Bft) W-NW 292 15,0 C 4,7 km/h (1 Bft)
28.08.2015 15:55 29,2 C 33,4 C 42 % 1015,6 hPa 0,0 mm 3,1 km/h (1 Bft) N-NW 337 14,9 C 4,1 km/h (1 Bft)
28.08.2015 16:00 29,3 C 33,4 C 42 % 1015,6 hPa 0,0 mm 4,1 km/h (1 Bft) W-NW 292 15,0 C 6,0 km/h (2 Bft)
28.08.2015 16:05 29,1 C 33,9 C 40 % 1015,6 hPa 0,0 mm 3,6 km/h (1 Bft) SW 225 14,1 C 4,7 km/h (1 Bft)
28.08.2015 16:10 28,9 C 33,5 C 42 % 1015,6 hPa 0,0 mm 3,1 km/h (1 Bft) N 360 14,7 C 0,0 km/h (0 Bft)
28.08.2015 16:15 28,8 C 33,4 C 43 % 1015,8 hPa 0,0 mm 3,4 km/h (1 Bft) W 270 15,0 C 6,0 km/h (2 Bft)
28.08.2015 16:20 28,3 C 33,1 C 43 % 1015,8 hPa 0,0 mm 2,6 km/h (1 Bft) N-NW 337 14,5 C 4,1 km/h (1 Bft)
28.08.2015 16:25 28,1 C 33,3 C 43 % 1015,8 hPa 0,0 mm 3,6 km/h (1 Bft) NW 315 14,3 C 7,5 km/h (2 Bft)
28.08.2015 16:30 27,9 C 33,5 C 44 % 1015,8 hPa 0,0 mm 4,1 km/h (1 Bft) N-NO 22 14,5 C 9,8 km/h (2 Bft)
28.08.2015 16:35 27,9 C 33,5 C 43 % 1015,6 hPa 0,0 mm 4,1 km/h (1 Bft) N-NW 337 14,1 C 6,2 km/h (2 Bft)
28.08.2015 16:40 27,8 C 32,7 C 44 % 1015,6 hPa 0,0 mm 3,6 km/h (1 Bft) N-NW 337 14,4 C 8,8 km/h (2 Bft)
28.08.2015 16:45 27,7 C 31,6 C 43 % 1015,6 hPa 0,0 mm 4,9 km/h (1 Bft) W 270 14,0 C 9,3 km/h (2 Bft)
28.08.2015 16:50 27,5 C 30,1 C 42 % 1015,6 hPa 0,0 mm 7,8 km/h (2 Bft) W 270 13,4 C 5,4 km/h (1 Bft)
28.08.2015 16:55 27,5 C 29,3 C 42 % 1015,5 hPa 0,0 mm 7,0 km/h (2 Bft) N-NW 337 13,4 C 11,7 km/h (2 Bft)
28.08.2015 17:00 27,5 C 28,9 C 43 % 1015,5 hPa 0,0 mm 5,2 km/h (1 Bft) W 270 13,8 C 6,7 km/h (2 Bft)
28.08.2015 17:05 27,4 C 28,7 C 43 % 1015,5 hPa 0,0 mm 3,9 km/h (1 Bft) NW 315 13,7 C 3,4 km/h (1 Bft)
28.08.2015 17:10 27,4 C 28,7 C 42 % 1015,5 hPa 0,0 mm 3,9 km/h (1 Bft) W 270 13,3 C 8,8 km/h (2 Bft)
28.08.2015 17:15 27,4 C 28,7 C 43 % 1015,2 hPa 0,0 mm 4,7 km/h (1 Bft) NW 315 13,7 C 8,3 km/h (2 Bft)
28.08.2015 17:20 27,4 C 28,5 C 43 % 1015,2 hPa 0,0 mm 4,1 km/h (1 Bft) NW 315 13,7 C 4,7 km/h (1 Bft)
28.08.2015 17:25 27,1 C 28,4 C 43 % 1015,2 hPa 0,0 mm 3,4 km/h (1 Bft) NW 315 13,4 C 4,9 km/h (1 Bft)
28.08.2015 17:30 26,9 C 28,1 C 44 % 1015,2 hPa 0,0 mm 2,8 km/h (1 Bft) W-NW 292 13,6 C 3,9 km/h (1 Bft)
28.08.2015 17:35 27,0 C 28,0 C 44 % 1015,3 hPa 0,0 mm 3,1 km/h (1 Bft) W-NW 292 13,7 C 5,7 km/h (1 Bft)
28.08.2015 17:40 26,9 C 27,9 C 44 % 1015,3 hPa 0,0 mm 3,1 km/h (1 Bft) W 270 13,6 C 8,0 km/h (2 Bft)
28.08.2015 17:45 26,9 C 27,9 C 44 % 1015,3 hPa 0,0 mm 4,7 km/h (1 Bft) W 270 13,6 C 8,8 km/h (2 Bft)
28.08.2015 17:50 26,7 C 27,7 C 43 % 1015,3 hPa 0,0 mm 6,7 km/h (2 Bft) W 270 13,1 C 5,2 km/h (1 Bft)
28.08.2015 17:55 26,5 C 27,5 C 43 % 1015,2 hPa 0,0 mm 4,9 km/h (1 Bft) NW 315 12,9 C 5,4 km/h (1 Bft)
28.08.2015 18:00 26,4 C 27,5 C 43 % 1015,2 hPa 0,0 mm 4,4 km/h (1 Bft) NW 315 12,8 C 6,2 km/h (2 Bft)
28.08.2015 18:05 26,4 C 27,4 C 43 % 1015,2 hPa 0,0 mm 4,9 km/h (1 Bft) W 270 12,8 C 6,7 km/h (2 Bft)
28.08.2015 18:10 26,1 C 27,2 C 43 % 1015,2 hPa 0,0 mm 4,4 km/h (1 Bft) W-NW 292 12,5 C 7,5 km/h (2 Bft)
28.08.2015 18:15 26,1 C 27,1 C 43 % 1015,2 hPa 0,0 mm 4,4 km/h (1 Bft) W 270 12,5 C 3,9 km/h (1 Bft)
28.08.2015 18:20 25,8 C 26,9 C 43 % 1015,2 hPa 0,0 mm 4,1 km/h (1 Bft) W 270 12,3 C 4,4 km/h (1 Bft)
28.08.2015 18:21 25,6 C 26,8 C 43 % 1015,2 hPa 0,0 mm 2,6 km/h (1 Bft) W-NW 292 12,1 C 0,0 km/h (0 Bft)
28.08.2015 18:24 25,6 C 26,8 C 43 % 1015,2 hPa 0,0 mm 2,6 km/h (1 Bft) W-NW 292 12,1 C 0,0 km/h (0 Bft)
28.08.2015 18:25 25,6 C 26,8 C 43 % 1015,2 hPa 0,0 mm 2,6 km/h (1 Bft) W-NW 292 12,1 C 0,0 km/h (0 Bft)
28.08.2015 18:30 25,3 C 26,7 C 44 % 1015,2 hPa 0,0 mm 1,0 km/h (0 Bft) NW 315 12,2 C 0,0 km/h (0 Bft)
28.08.2015 18:35 25,2 C 26,6 C 45 % 1015,2 hPa 0,0 mm 0,5 km/h (0 Bft) W 270 12,4 C 0,0 km/h (0 Bft)
28.08.2015 18:40 25,2 C 26,5 C 46 % 1015,2 hPa 0,0 mm 0,3 km/h (0 Bft) W-SW 247 12,7 C 0,0 km/h (0 Bft)
28.08.2015 18:45 25,2 C 26,3 C 46 % 1015,2 hPa 0,0 mm 0,3 km/h (0 Bft) W-SW 247 12,7 C 0,0 km/h (0 Bft)
28.08.2015 18:50 25,1 C 26,1 C 46 % 1015,2 hPa 0,0 mm 0,0 km/h (0 Bft) NW 315 12,7 C 0,0 km/h (0 Bft)
28.08.2015 18:55 25,0 C 26,0 C 47 % 1015,2 hPa 0,0 mm 0,0 km/h (0 Bft) NW 315 12,9 C 0,0 km/h (0 Bft)
28.08.2015 19:00 24,9 C 25,7 C 50 % 1015,2 hPa 0,0 mm 0,0 km/h (0 Bft) SW 225 13,7 C 0,0 km/h (0 Bft)
28.08.2015 19:05 24,6 C 25,5 C 53 % 1015,2 hPa 0,0 mm 0,0 km/h (0 Bft) SW 225 14,4 C 0,0 km/h (0 Bft)
28.08.2015 19:10 24,4 C 25,4 C 55 % 1015,2 hPa 0,0 mm 0,0 km/h (0 Bft) SW 225 14,8 C 0,0 km/h (0 Bft)
28.08.2015 19:15 24,1 C 25,3 C 57 % 1015,1 hPa 0,0 mm 0,0 km/h (0 Bft) SW 225 15,0 C 0,0 km/h (0 Bft)
28.08.2015 19:20 23,5 C 25,1 C 58 % 1015,1 hPa 0,0 mm 0,0 km/h (0 Bft) SW 225 14,7 C 0,0 km/h (0 Bft)
28.08.2015 19:25 23,3 C 24,8 C 59 % 1015,1 hPa 0,0 mm 0,0 km/h (0 Bft) SW 225 14,8 C 0,0 km/h (0 Bft)
28.08.2015 19:30 23,2 C 24,7 C 58 % 1015,1 hPa 0,0 mm 0,0 km/h (0 Bft) SW 225 14,5 C 0,0 km/h (0 Bft)
28.08.2015 19:35 23,0 C 24,6 C 58 % 1015,6 hPa 0,0 mm 0,3 km/h (0 Bft) SW 225 14,3 C 0,0 km/h (0 Bft)
28.08.2015 19:40 22,2 C 24,2 C 61 % 1015,6 hPa 0,0 mm 0,5 km/h (0 Bft) S-SO 157 14,3 C 3,6 km/h (1 Bft)
28.08.2015 19:45 21,8 C 24,0 C 62 % 1015,6 hPa 0,0 mm 0,8 km/h (0 Bft) SO 135 14,2 C 3,4 km/h (1 Bft)
28.08.2015 19:50 21,5 C 23,6 C 62 % 1015,6 hPa 0,0 mm 1,6 km/h (1 Bft) S-SO 157 13,9 C 3,9 km/h (1 Bft)
28.08.2015 19:55 21,2 C 23,5 C 62 % 1015,6 hPa 0,0 mm 2,6 km/h (1 Bft) SO 135 13,6 C 4,7 km/h (1 Bft)
28.08.2015 20:00 21,0 C 23,1 C 62 % 1015,6 hPa 0,0 mm 3,6 km/h (1 Bft) SO 135 13,4 C 5,4 km/h (1 Bft)
28.08.2015 20:05 20,5 C 22,8 C 64 % 1015,6 hPa 0,0 mm 2,6 km/h (1 Bft) SO 135 13,5 C 0,0 km/h (0 Bft)
28.08.2015 20:10 20,4 C 22,1 C 65 % 1015,6 hPa 0,0 mm 1,6 km/h (1 Bft) S-SO 157 13,6 C 3,9 km/h (1 Bft)
28.08.2015 20:15 20,5 C 22,1 C 65 % 1015,8 hPa 0,0 mm 1,8 km/h (1 Bft) S-SO 157 13,7 C 3,4 km/h (1 Bft)
28.08.2015 20:20 19,9 C 21,7 C 66 % 1015,8 hPa 0,0 mm 1,6 km/h (1 Bft) S-SO 157 13,4 C 0,0 km/h (0 Bft)
28.08.2015 20:25 19,9 C 21,4 C 66 % 1015,8 hPa 0,0 mm 1,3 km/h (1 Bft) S-SO 157 13,4 C 0,0 km/h (0 Bft)
28.08.2015 20:30 20,1 C 21,0 C 65 % 1015,8 hPa 0,0 mm 2,1 km/h (1 Bft) SO 135 13,3 C 3,4 km/h (1 Bft)
28.08.2015 20:35 19,8 C 20,7 C 65 % 1016,0 hPa 0,0 mm 1,6 km/h (1 Bft) S-SO 157 13,0 C 0,0 km/h (0 Bft)
28.08.2015 20:40 19,3 C 20,4 C 66 % 1016,0 hPa 0,0 mm 0,8 km/h (0 Bft) S 180 12,8 C 0,0 km/h (0 Bft)
28.08.2015 20:45 19,4 C 20,3 C 66 % 1016,0 hPa 0,0 mm 1,8 km/h (1 Bft) S 180 12,9 C 6,0 km/h (2 Bft)
28.08.2015 20:50 19,7 C 20,3 C 66 % 1016,0 hPa 0,0 mm 5,4 km/h (1 Bft) S 180 13,2 C 5,7 km/h (1 Bft)
28.08.2015 20:55 19,6 C 20,2 C 65 % 1016,2 hPa 0,0 mm 4,4 km/h (1 Bft) S-SO 157 12,8 C 0,0 km/h (0 Bft)
28.08.2015 21:00 19,2 C 19,9 C 67 % 1016,2 hPa 0,0 mm 1,6 km/h (1 Bft) S 180 12,9 C 0,0 km/h (0 Bft)
28.08.2015 21:05 19,4 C 19,8 C 67 % 1016,2 hPa 0,0 mm 1,8 km/h (1 Bft) SO 135 13,1 C 3,9 km/h (1 Bft)
28.08.2015 21:10 19,4 C 19,6 C 66 % 1016,2 hPa 0,0 mm 1,3 km/h (1 Bft) S 180 12,9 C 2,6 km/h (1 Bft)
28.08.2015 21:15 18,9 C 19,5 C 67 % 1016,2 hPa 0,0 mm 0,8 km/h (0 Bft) S 180 12,6 C 0,0 km/h (0 Bft)
28.08.2015 21:20 18,6 C 19,3 C 68 % 1016,2 hPa 0,0 mm 0,3 km/h (0 Bft) S 180 12,6 C 0,0 km/h (0 Bft)
28.08.2015 21:25 18,6 C 19,2 C 68 % 1016,2 hPa 0,0 mm 0,0 km/h (0 Bft) S 180 12,6 C 0,0 km/h (0 Bft)
28.08.2015 21:30 18,6 C 19,0 C 68 % 1016,2 hPa 0,0 mm 0,5 km/h (0 Bft) S 180 12,6 C 2,6 km/h (1 Bft)
28.08.2015 21:35 18,6 C 18,9 C 68 % 1016,4 hPa 0,0 mm 0,5 km/h (0 Bft) S 180 12,6 C 0,0 km/h (0 Bft)
28.08.2015 21:40 18,4 C 18,7 C 68 % 1016,4 hPa 0,0 mm 0,3 km/h (0 Bft) S 180 12,4 C 0,0 km/h (0 Bft)
28.08.2015 21:45 18,5 C 18,6 C 68 % 1016,4 hPa 0,0 mm 0,0 km/h (0 Bft) S 180 12,5 C 0,0 km/h (0 Bft)
28.08.2015 21:50 18,6 C 18,5 C 68 % 1016,4 hPa 0,0 mm 0,0 km/h (0 Bft) S 180 12,6 C 0,0 km/h (0 Bft)
28.08.2015 21:55 18,5 C 18,4 C 68 % 1016,4 hPa 0,0 mm 0,0 km/h (0 Bft) S-SW 202 12,5 C 0,0 km/h (0 Bft)
28.08.2015 22:00 18,2 C 18,1 C 68 % 1016,4 hPa 0,0 mm 0,0 km/h (0 Bft) S-SO 157 12,2 C 0,0 km/h (0 Bft)
28.08.2015 22:05 18,3 C 18,2 C 68 % 1016,4 hPa 0,0 mm 0,0 km/h (0 Bft) S 180 12,3 C 0,0 km/h (0 Bft)
28.08.2015 22:10 18,3 C 18,1 C 67 % 1016,4 hPa 0,0 mm 0,0 km/h (0 Bft) S-SO 157 12,1 C 0,0 km/h (0 Bft)
28.08.2015 22:15 18,2 C 18,0 C 67 % 1016,4 hPa 0,0 mm 0,0 km/h (0 Bft) S-SO 157 12,0 C 0,0 km/h (0 Bft)
28.08.2015 22:20 18,1 C 17,9 C 67 % 1016,4 hPa 0,0 mm 0,0 km/h (0 Bft) SW 225 11,9 C 0,0 km/h (0 Bft)
28.08.2015 22:25 17,9 C 17,7 C 67 % 1016,4 hPa 0,0 mm 0,0 km/h (0 Bft) S-SO 157 11,7 C 0,0 km/h (0 Bft)
28.08.2015 22:30 17,6 C 17,4 C 68 % 1016,4 hPa 0,0 mm 0,0 km/h (0 Bft) S 180 11,6 C 0,0 km/h (0 Bft)
28.08.2015 22:35 17,5 C 17,4 C 68 % 1016,8 hPa 0,0 mm 0,0 km/h (0 Bft) S-SO 157 11,5 C 0,0 km/h (0 Bft)
28.08.2015 22:40 17,2 C 17,1 C 69 % 1016,8 hPa 0,0 mm 0,0 km/h (0 Bft) S-SO 157 11,5 C 0,0 km/h (0 Bft)
28.08.2015 22:45 16,9 C 16,8 C 69 % 1016,8 hPa 0,0 mm 0,0 km/h (0 Bft) W-SW 247 11,2 C 0,0 km/h (0 Bft)
28.08.2015 22:50 16,8 C 16,7 C 70 % 1016,8 hPa 0,0 mm 0,0 km/h (0 Bft) S 180 11,3 C 0,0 km/h (0 Bft)
28.08.2015 22:55 16,6 C 16,5 C 70 % 1016,8 hPa 0,0 mm 0,0 km/h (0 Bft) S 180 11,1 C 0,0 km/h (0 Bft)
28.08.2015 23:00 16,5 C 16,4 C 71 % 1016,8 hPa 0,0 mm 0,0 km/h (0 Bft) S 180 11,2 C 0,0 km/h (0 Bft)
28.08.2015 23:05 16,7 C 16,5 C 71 % 1016,8 hPa 0,0 mm 0,0 km/h (0 Bft) W-SW 247 11,4 C 0,0 km/h (0 Bft)
28.08.2015 23:10 16,5 C 16,3 C 72 % 1016,8 hPa 0,0 mm 0,0 km/h (0 Bft) W-SW 247 11,4 C 0,0 km/h (0 Bft)
28.08.2015 23:15 16,4 C 16,2 C 72 % 1016,8 hPa 0,0 mm 0,0 km/h (0 Bft) W-SW 247 11,3 C 0,0 km/h (0 Bft)
28.08.2015 23:20 16,3 C 16,1 C 72 % 1016,8 hPa 0,0 mm 0,0 km/h (0 Bft) W-SW 247 11,2 C 0,0 km/h (0 Bft)
28.08.2015 23:25 16,4 C 16,2 C 73 % 1016,8 hPa 0,0 mm 0,0 km/h (0 Bft) W-SW 247 11,5 C 0,0 km/h (0 Bft)
28.08.2015 23:30 16,3 C 16,1 C 73 % 1016,8 hPa 0,0 mm 0,0 km/h (0 Bft) W-SW 247 11,4 C 0,0 km/h (0 Bft)
28.08.2015 23:35 16,4 C 16,1 C 73 % 1016,9 hPa 0,0 mm 0,0 km/h (0 Bft) W-SW 247 11,5 C 0,0 km/h (0 Bft)
28.08.2015 23:40 16,2 C 16,0 C 73 % 1016,9 hPa 0,0 mm 0,0 km/h (0 Bft) W-SW 247 11,4 C 0,0 km/h (0 Bft)
28.08.2015 23:45 16,0 C 15,8 C 73 % 1016,9 hPa 0,0 mm 0,5 km/h (0 Bft) W-NW 292 11,2 C 0,0 km/h (0 Bft)
28.08.2015 23:50 16,1 C 15,9 C 74 % 1016,9 hPa 0,0 mm 1,3 km/h (1 Bft) S-SO 157 11,5 C 0,0 km/h (0 Bft)
28.08.2015 23:55 16,5 C 16,2 C 75 % 1017,2 hPa 0,0 mm 2,3 km/h (1 Bft) SO 135 12,1 C 4,4 km/h (1 Bft)
_ Min-Zeit 06:55 05:30 16:05 00:10 - 23:40 - - 06:55 23:50
Minimum _ 12,6 C 12,5 C 40 % 1010,0 hPa - 0,0 km/h (0 Bft) - - 9,1 C 0,0 km/h (0 Bft)
_ Max-Zeit 16:00 13:05 05:35 13:10 23:55 14:05 - - 10:45 02:40
Maximum _ 29,3 C 34,3 C 81 % 1017,8 hPa 0,0 mm 8,3 km/h
NW (2 Bft)
- - 16,8 C 19,4 km/h
SO (3 Bft)
Durchschnitt _ 20,5 C 22,8 C 63 % 1014,4 hPa #0,0 mm 1,6 km/h (1 Bft) NW - 12,7 C 2,3 km/h (1 Bft)